Back to catalog

THORAD AGENA D DEB

AlivePO
NORAD 5149·DEBRIS·🇺🇸 United States

Launched Apr 8, 1970 from Vandenberg Space Force Base

Loading…

Next Passes (next 24 hours)

TLE

FreshSource: Space-Track

Epoch: Sep 14, 2026, 09:27 UTC

1 05149U 70025JS  26257.39381739  .00001463  00000-0  58780-3 0  9993
2 05149  99.6253 316.0165 0049895 238.6173 121.0119 14.29306669874361

Track THORAD AGENA D DEB in real time with AllMySat

Download on the App Store